Location: Cheyres
(46.8153°N, 6.7877°E)
Time: 20:02:28
(UTC+00:00)

AO-109 - Pass Details

Date: 09 July 2022
Orbit: 469 x 506 km, 60.7° (Epoch: 16 August)

Event Time Altitude Azimuth Distance (km) Brightness Sun altitude
Exits shadow 02:34:32 - 262° (W) 1,804 ? -10.2°
Reaches altitude 10° 02:34:57 10° 265° (W) 1,654 ? -10.1°
Maximum altitude 02:38:12 28° 327° (NNW) 934 ? -9.8°
Drops below altitude 10° 02:41:30 10° 28° (NNE) 1,682 ? -9.4°
Sets 02:43:54 0° 40° (NE) 2,575 ? -9.1°
